Showing default

COSMOS 1410, 13589

Orbit data source: Space-Track

COSMOS 1410, 13589 is a payload satellite owned by NPO PM (CIS) in LEO that was launched on Fri, 24 Sep 1982 UTC via a TSIKLON-3 launch vehicle from the Plesetsk Missile And Space Complex (PKMTR). Payload-class satellites include a variety of spacecraft equipped with specific instruments for various scientific and technological missions. These include communications satellites like Starlink; space stations such as the ISS; scientific satellites like the Hubble; Earth observation satellites from companies like Planet Labs, Umbra, and HawkEye 360; GPS; miniature CubeSats for education and research; and military/defense satellites.

Loading next visibility...
Identifier
13589, 1982-096A
Orbit
LEO
Country
Flag of CISCIS
Related business
Manufacturer
NPO PM
Mission
Spacecraft
Bus & Motor
KAUR-1 11F666, Unknown motor
Mass
1,547 kg wet, 1,547 kg dry
Launch date (UTC)
1982-09-24 (44 years ago)
Launch vehicle
TSIKLON-3
Launch site
Plesetsk Missile And Space Complex (PKMTR)
Object type
Payload
Rocket body
Debris
Shape & HBR
Unknown
Radar Cross Section
Large (>1 m²)

Expand to show TLE details & history
Last TLE update: 2 days ago

TLE from 2 days ago
0 COSMOS 1410
1 13589U 82096A   26171.31588524  .00000042  00000-0  23072-3 0  9997
2 13589  82.6093 110.2227 0005429 313.1466 164.1716 12.42352496984347
Epoch: 2026-06-20T07:34Z
TLE epoch observation values (Epoch: 2026-06-20T07:34:52.484Z)
Latitude
61.84273°
Longitude
-105.9834°
Altitude
1,511.306 km
Speed
7.113 km/s
True Right ascension
18h 25m 04s
True Declination
61° 42' 47"
Sunlit
Object was in daylight at epoch
Visualization orbit readout
Latitude
Unknown
Longitude
Unknown
Altitude
Unknown
Speed
Unknown
Apparent Right ascension
Unknown
Apparent Declination
Unknown
Sunlit
N/A
Visualization observer readout
Local Sidereal Time
23:09:11
Azimuth
Unknown
Elevation
Unknown
Doppler factor
Unknown
Orbital elements
Apogee altitude
1,498.268 km
Perigee altitude
1,489.721 km
Semi-major axis
7,872.131 km
Eccentricity
0.00054
Inclination
82.6093°
RAAN
110.2227°
Arg. of periapsis
313.1466°
True anomaly
164.18856°
Mean anomaly
164.1716°
Eccentric anomaly
164.18008°
Mean motion
3.10745 °/min
Orbital period
115.85 mins
BSTAR
0.00023072
Loading maneuver chart data...
Computing Atmospheric mass density...
Loading historical data...
Loading historical data...
Loading historical data...
Loading historical data...
Loading historical data...
Loading historical data...
Loading historical data...
Other satellites on launch #96 in the year 1982 (1982-09-24 UTC)

Documentation

Showing up to 5 results
|